Simultaneous Nadir Overpasses (SNOs) Predictions

Prediction of SNOs between GOES-17 and METOP-C Satellite Orbit:

Table of predicted SNOs for the next 14.0 days since TLE Epoch: 9/14/2024
Index Date Time (GOES-17) GOES-17 Lat,Lon METOP-C Lat,Lon Distance(km) Time Diff (sec)
1 09/14/2024 04:22:35 -0.01,-104.68 0.32,-103.29 158.91 80
2 09/15/2024 16:41:28 0.00,-104.73 0.69,-107.86 356.28 80
3 09/16/2024 16:23:30 -0.00,-104.73 -0.44,-102.87 212.83 80
4 09/18/2024 04:42:31 0.00,-104.69 -0.59,-107.46 315.55 80
5 09/19/2024 04:19:12 0.00,-104.69 0.49,-102.46 253.59 80
6 09/20/2024 16:38:04 -0.01,-104.74 0.52,-107.02 261.09 80
7 09/21/2024 16:20:06 -0.01,-104.74 -0.63,-102.04 308.20 80
8 09/23/2024 04:39:06 0.01,-104.70 -0.42,-106.63 220.08 80
9 09/24/2024 04:15:46 0.01,-104.69 0.69,-101.63 349.00 80
10 09/25/2024 16:34:38 -0.00,-104.74 0.33,-106.19 165.53 80
11 09/26/2024 16:16:38 -0.00,-104.74 -0.79,-101.19 403.99 80
